Погода в Посаде

Россия / Архангельская область     63°06′35″N   39°14′21″E
темп.,
°C
ветер,
м/с
пор.,
м/с
влажн.,
%
обл.,
%
осадки,
мм/ч
давл.,
гПа
погр.,
м
17 июня, чт
чт1700:00+9зсз411835 0.3 1014505
03:00+8зсз310835 0.3 1015439
06:00+10зсз49620 0.0 10171002
09:00+14сз57405 0.0 10181977
12:00+17сз46304 0.0 10192461
15:00+18ссз462729 0.0 10202446
18:00+18сз24295 0.0 10201976
21:00+13зюз11505 0.0 102111
18 июня, пт
пт1800:00+11ююз3551100 0.0 102288
03:00+12ююз3116396 0.0 1020286
06:00+16юз41360100 0.0 1019541
09:00+20юз51047100 0.0 1018806
12:00+23зюз61033100 0.0 10171563
15:00+24з692998 0.0 10161965
18:00+26з4928100 0.0 10152364
21:00+21юз4104633 0.0 1014495
19 июня, сб
сб1900:00+19юз4145636 0.0 1014488
03:00+17юз5146360 0.0 1013469
06:00+19зюз514657 0.0 1012650
09:00+24з6105670 0.2 10121190
12:00+22сз4968100 0.2 10141102
15:00+19сз298257 0.8 1016496
18:00+20с267374 0.3 1016287
21:00+18с116738 0.3 101811
20 июня, вс
вс2000:00+15в276581 0.0 1019248
03:00+14вюв3862100 0.0 1019302
06:00+14юв3970100 0.1 1018309
09:00+24юз375114 0.1 10161060
12:00+29з69330 0.0 10142703
15:00+30з583198 0.0 10133069
18:00+26ююз244911 0.0 101397
21:00+24юз41048100 0.0 1013384
21 июня, пн
пн2100:00+22юз4135991 0.0 1013397
03:00+20юз4136954 0.0 1014363
06:00+22зюз41269100 0.1 1014494
09:00+26з4854100 0.1 10141311
12:00+29зсз583491 0.0 10142166
15:00+29сз573015 0.0 10152104
18:00+24с45455 0.0 1017812
21:00+19с376064 0.0 1019285